G7JIF Weather Reports


time (UTC)temp
C
wind
direction
speed
KPH
gust
KPH
rain 1hr
cm
rain 24hr
cm
rain mn
cm
humidity
%
barometer
mb
20200217091207 6 225 6.4 14.5 0.00 0.00 0.00 86 1003.8
20200217090708 6 180 6.4 14.5 0.00 0.00 0.00 86 1003.8
20200217090208 6 248 6.4 16.1 0.00 0.00 0.00 86 1003.8
20200217085715 6 68 9.7 16.1 0.00 0.00 0.00 86 1003.8
20200217085207 5 248 11.3 16.1 0.00 0.00 0.00 87 1004.8
20200217084718 5 158 8.0 14.5 0.00 0.00 0.00 87 1004.8
20200217084208 5 158 8.0 14.5 0.00 0.00 0.00 87 1004.8
20200217083713 5 248 6.4 14.5 0.00 0.00 0.00 87 1003.8
20200217083207 5 270 14.5 12.9 0.00 0.00 0.00 87 1003.8
20200217082716 5 158 8.0 12.9 0.00 0.00 0.00 87 1003.8
20200217082208 5 180 12.9 12.9 0.00 0.00 0.00 88 1003.8
20200217081737 5 180 12.9 14.5 0.00 0.00 0.00 88 1003.8
20200217081208 5 180 11.3 14.5 0.00 0.00 0.00 88 1003.8
20200217080707 5 248 6.4 14.5 0.00 0.00 0.00 88 1003.8
20200217080208 4 180 14.5 9.7 0.00 0.00 0.00 89 1003.8
20200217075707 4 202 6.4 9.7 0.00 0.00 0.00 89 1003.8
20200217075208 4 202 9.7 9.7 0.00 0.00 0.00 89 1003.8
20200217074721 4 158 6.4 8.0 0.00 0.00 0.00 89 1003.8
20200217074210 4 248 8.0 8.0 0.00 0.00 0.00 89 1003.8
20200217073710 4 180 6.4 6.4 0.00 0.00 0.00 88 1002.8
20200217073207 4 248 6.4 6.4 0.00 0.00 0.00 88 1002.8
20200217072707 4 248 6.4 6.4 0.00 0.00 0.00 88 1002.8
20200217072209 3 248 6.4 6.4 0.00 0.00 0.00 88 1002.8
20200217071708 3 248 6.4 6.4 0.00 0.00 0.00 88 1002.8
20200217071207 3 158 4.8 4.8 0.00 0.00 0.00 88 1002.8
20200217070712 3 180 4.8 4.8 0.00 0.00 0.00 88 1002.8
20200217070208 3 180 3.2 3.2 0.00 0.00 0.00 88 1002.8
20200217065708 3 270 3.2 17.7 0.00 0.00 0.00 88 1002.8
20200217065207 3 158 3.2 17.7 0.00 0.00 0.00 88 1002.8
20200217064709 3 202 3.2 17.7 0.00 0.00 0.00 88 1002.8
20200217064208 3 158 17.7 17.7 0.00 0.00 0.00 88 1002.8
20200217063722 3 158 17.7 17.7 0.00 0.00 0.00 88 1002.8
20200217063207 3 158 17.7 11.3 0.00 0.00 0.00 88 1002.8
20200217062707 3 135 6.4 11.3 0.00 0.00 0.00 87 1002.8
20200217062208 3 202 11.3 14.5 0.00 0.00 0.00 87 1002.8
20200217061708 3 202 6.4 14.5 0.00 0.00 0.00 87 1002.8
20200217061208 3 225 6.4 14.5 0.00 0.00 0.00 86 1002.8
20200217060707 3 225 9.7 9.7 0.00 0.00 0.00 86 1002.8
20200217060208 3 225 9.7 9.7 0.00 0.00 0.00 86 1002.8
20200217055722 4 135 9.7 17.7 0.00 0.00 0.00 84 1002.8
20200217055207 4 135 9.7 17.7 0.00 0.00 0.00 84 1002.8
20200217054713 4 180 4.8 17.7 0.00 0.00 0.00 84 1002.8
20200217054208 5 158 17.7 17.7 0.00 0.00 0.00 83 1002.8
20200217053707 5 158 17.7 17.7 0.00 0.00 0.00 83 1002.8
20200217053208 5 248 12.9 12.9 0.00 0.00 0.00 82 1002.8
20200217052707 5 338 12.9 17.7 0.00 0.00 0.00 82 1002.8
20200217052208 5 270 9.7 17.7 0.00 0.00 0.00 81 1002.8
20200217051708 6 0 6.4 17.7 0.00 0.00 0.00 82 1002.8
20200217051208 6 180 17.7 14.5 0.00 0.00 0.00 82 1002.8
20200217050707 6 225 4.8 14.5 0.00 0.00 0.00 82 1002.8
20200217050208 6 202 4.8 14.5 0.00 0.00 0.00 82 1002.8
20200217045716 6 22 14.5 12.9 0.00 0.00 0.00 83 1002.8
20200217045211 6 292 9.7 9.7 0.00 0.00 0.00 83 1002.8
20200217044705 6 292 9.7 12.9 0.00 0.00 0.00 83 1002.8
20200217044209 6 68 8.0 12.9 0.00 0.00 0.00 83 1002.8
20200217043724 6 270 6.4 12.9 0.00 0.00 0.00 83 1002.8
20200217043208 6 158 6.4 9.7 0.00 0.00 0.00 83 1002.8
20200217042707 6 225 6.4 9.7 0.00 0.00 0.00 83 1002.8
20200217042208 6 225 6.4 9.7 0.00 0.00 0.00 83 1002.8
20200217041708 6 180 9.7 9.7 0.00 0.00 0.00 83 1002.8
20200217041207 6 180 9.7 16.1 0.00 0.00 0.00 83 1002.8
20200217040707 6 248 9.7 16.1 0.00 0.00 0.00 83 1002.8
20200217040210 6 248 9.7 24.1 0.00 0.00 0.00 82 1002.8
20200217035708 6 202 16.1 24.1 0.00 0.00 0.00 82 1002.8
20200217035209 6 225 16.1 24.1 0.00 0.00 0.00 82 1002.8
20200217034738 6 180 24.1 16.1 0.00 0.00 0.00 82 1002.8
20200217034208 6 225 9.7 22.5 0.00 0.00 0.00 82 1002.8
20200217033716 6 225 11.3 22.5 0.00 0.00 0.00 82 1002.8
20200217033208 6 202 16.1 22.5 0.00 0.00 0.00 82 1002.8
20200217032714 6 202 22.5 22.5 0.00 0.00 0.00 82 1002.8
20200217032209 6 202 22.5 22.5 0.00 0.00 0.00 82 1002.8
20200217031708 6 202 22.5 12.9 0.00 0.00 0.00 82 1002.8
20200217031207 6 135 8.0 20.9 0.00 0.00 0.00 82 1002.8
20200217030707 6 202 8.0 20.9 0.00 0.00 0.00 82 1002.8
20200217030208 6 202 12.9 20.9 0.00 0.00 0.00 82 1002.8
20200217025707 6 135 8.0 14.5 0.00 0.00 0.00 83 1002.8
20200217025207 6 225 11.3 14.5 0.00 0.00 0.00 82 1002.8
20200217024720 6 158 12.9 14.5 0.00 0.00 0.00 82 1002.8
20200217024208 6 158 12.9 14.5 0.00 0.00 0.00 82 1002.8
20200217023706 6 180 14.5 19.3 0.00 0.00 0.00 82 1002.8
20200217023207 5 180 14.5 19.3 0.00 0.00 0.00 82 1002.8
20200217022709 5 202 12.9 19.3 0.00 0.00 0.00 81 1002.8
20200217022208 5 112 9.7 19.3 0.00 0.00 0.00 81 1002.8
20200217021709 5 202 6.4 8.0 0.00 0.00 0.00 81 1002.8
20200217021207 5 202 6.4 9.7 0.00 0.00 0.00 81 1002.8
20200217020724 5 292 8.0 9.7 0.00 0.00 0.00 81 1002.8
20200217020208 5 202 8.0 9.7 0.00 0.00 0.00 81 1002.8
20200217015712 5 68 9.7 12.9 0.00 0.00 0.00 81 1002.8
20200217015207 5 180 9.7 12.9 0.00 0.00 0.00 81 1002.8
20200217014708 5 180 9.7 12.9 0.00 0.00 0.00 81 1002.8
20200217014208 5 225 8.0 16.1 0.00 0.00 0.00 81 1002.8
20200217013707 5 202 8.0 17.7 0.00 0.00 0.00 81 1002.8
20200217013207 5 135 6.4 17.7 0.00 0.00 0.00 82 1002.8
20200217012707 5 202 11.3 17.7 0.00 0.00 0.00 83 1002.8
20200217012209 5 225 16.1 20.9 0.00 0.00 0.00 83 1002.8
20200217011708 5 270 9.7 20.9 0.00 0.00 0.00 83 1002.8
20200217011207 5 135 9.7 20.9 0.00 0.00 0.00 83 1002.8
20200217010709 5 180 20.9 20.9 0.00 0.00 0.00 83 1002.8
20200217010208 5 202 9.7 16.1 0.00 0.00 0.00 83 1002.8
20200217005719 5 202 11.3 16.1 0.00 0.00 0.00 83 1002.8
20200217005211 5 135 4.8 16.1 0.00 0.00 0.00 84 1002.8
20200217004707 5 180 9.7 16.1 0.00 0.00 0.00 86 1002.8
20200217004209 5 135 14.5 19.3 0.00 0.00 0.00 87 1002.8
20200217003707 5 135 14.5 19.3 0.00 0.00 0.00 87 1002.8
20200217003209 5 158 16.1 19.3 0.00 0.00 0.00 88 1002.8
20200217002707 5 202 11.3 9.7 0.00 0.00 0.00 88 1002.8
20200217002210 5 248 4.8 14.5 0.00 0.00 0.00 89 1002.8
20200217001730 5 135 9.7 14.5 0.00 0.00 0.00 89 1002.8
20200217001212 5 135 9.7 14.5 0.00 0.00 0.00 89 1002.8
20200217000707 4 45 14.5 9.7 0.00 0.00 0.00 90 1002.8
20200217000208 4 68 4.8 9.7 0.00 0.00 0.00 90 1002.8
20200216235736 4 180 9.7 9.7 0.00 0.00 0.00 91 1002.8
20200216235207 4 180 9.7 14.5 0.00 0.00 0.00 91 1002.8
20200216234709 4 180 9.7 14.5 0.00 0.00 0.00 92 1002.8
20200216234208 4 180 9.7 14.5 0.00 0.00 0.00 92 1002.8
20200216233710 4 270 14.5 14.5 0.00 0.00 0.00 92 1002.8
20200216233207 4 202 8.0 9.7 0.00 0.00 0.00 92 1002.8
20200216232719 4 180 6.4 9.7 0.00 0.00 0.00 92 1002.8
20200216232208 3 202 9.7 9.7 0.00 0.00 0.00 92 1002.8
20200216231708 3 202 9.7 9.7 0.00 0.00 0.00 92 1002.8
20200216231207 3 180 3.2 4.8 0.00 0.00 0.00 92 1002.8
20200216230707 3 202 3.2 4.8 0.00 0.00 0.00 92 1001.8
20200216230208 3 158 3.2 8.0 0.00 0.00 0.00 92 1001.8
20200216225708 3 202 4.8 8.0 0.00 0.00 0.00 92 1001.8
20200216225207 3 158 4.8 9.7 0.00 0.00 0.00 92 1001.8
20200216224709 3 202 3.2 9.7 0.00 0.00 0.00 91 1001.8
20200216224224 3 225 3.2 9.7 0.00 0.00 0.00 91 1001.8
20200216223710 3 202 9.7 8.0 0.00 0.00 0.00 91 1001.8
20200216223208 3 180 1.6 8.0 0.00 0.00 0.00 91 1001.8
20200216222707 3 270 8.0 6.4 0.00 0.00 0.00 91 1001.8
20200216222209 3 135 3.2 6.4 0.00 0.00 0.00 91 1001.8
20200216221708 3 225 4.8 6.4 0.00 0.00 0.00 91 1001.8
20200216221208 4 180 6.4 6.4 0.00 0.00 0.00 91 1001.8
20200216220707 4 135 4.8 6.4 0.00 0.00 0.00 91 1001.8
20200216220208 4 68 3.2 6.4 0.00 0.00 0.00 91 1001.8
20200216215716 4 22 1.6 6.4 0.00 0.00 0.00 91 1001.8
20200216215207 4 180 6.4 6.4 0.00 0.00 0.00 91 1000.8
20200216214711 4 112 4.8 16.1 0.00 0.00 0.00 91 1000.8
20200216214210 4 158 6.4 16.1 0.00 0.00 0.00 91 1000.8
20200216213707 5 180 3.2 16.1 0.00 0.00 0.00 92 1000.8
20200216213208 5 45 4.8 8.0 0.00 0.00 0.00 92 1000.8
20200216212707 4 158 8.0 8.0 0.00 0.00 0.00 92 1000.8
20200216212208 4 158 8.0 8.0 0.00 0.00 0.00 92 1000.8
20200216211706 4 180 6.4 6.4 0.00 0.00 0.00 92 1000.8
20200216211211 4 202 4.8 6.4 0.00 0.00 0.00 92 1000.8
20200216210707 4 158 1.6 6.4 0.00 0.00 0.00 92 999.8
20200216210208 4 90 6.4 6.4 0.00 0.00 0.00 92 999.8
20200216205707 4 180 1.6 9.7 0.00 0.00 0.00 92 999.8
20200216205208 4 292 4.8 9.7 0.00 0.00 0.00 92 999.8
20200216204730 4 292 4.8 9.7 0.00 0.00 0.00 91 999.8
20200216204208 4 225 9.7 9.7 0.00 0.00 0.00 91 999.8
20200216203710 4 225 9.7 9.7 0.00 0.00 0.00 91 998.8
20200216203207 4 112 8.0 8.0 0.00 0.00 0.00 91 998.8
20200216202707 4 112 8.0 6.4 0.00 0.00 0.00 91 998.8
20200216202208 4 202 6.4 6.4 0.00 0.00 0.00 91 998.8
20200216201731 4 202 6.4 6.4 0.00 0.00 0.00 91 998.8
20200216201208 5 202 6.4 6.4 0.00 0.00 0.00 91 998.8
20200216200707 5 45 4.8 4.8 0.00 0.00 0.00 91 998.8
20200216200209 5 180 4.8 4.8 0.00 0.00 0.00 90 998.8
20200216195716 5 180 4.8 0.0 0.00 0.00 0.00 88 998.8
20200216195207 5 292 6.4 6.4 0.00 0.00 0.00 88 998.8
20200216194709 5 292 6.4 12.9 0.00 0.00 0.00 88 998.8
20200216194208 5 292 6.4 14.5 0.00 0.00 0.00 88 998.8
20200216193709 6 292 6.4 14.5 0.00 0.00 0.00 87 998.8
20200216193207 6 225 6.4 14.5 0.00 0.00 0.00 87 998.8
20200216192707 6 270 14.5 14.5 0.00 0.00 0.00 87 998.8
20200216192211 6 135 8.0 9.7 0.00 0.00 0.00 88 997.7
20200216191708 6 248 4.8 9.7 0.00 0.00 0.00 89 997.7
20200216191214 6 180 6.4 9.7 0.00 0.00 0.00 89 997.7
20200216190707 6 180 6.4 24.1 0.00 0.00 0.00 89 996.7
20200216190209 6 180 6.4 24.1 0.00 0.00 0.00 89 996.7
20200216185707 6 202 9.7 24.1 0.00 0.00 0.00 90 996.7
20200216185235 6 225 24.1 25.7 0.00 0.00 0.00 90 996.7
20200216184715 6 158 9.7 25.7 0.00 0.00 0.00 91 996.7
20200216184208 6 158 6.4 25.7 0.00 0.00 0.00 91 996.7
20200216183718 6 180 25.7 25.7 0.00 0.00 0.00 92 995.7
20200216183207 6 180 12.9 17.7 0.00 0.00 0.00 92 995.7
20200216182729 6 180 12.9 17.7 0.00 0.00 0.00 92 995.7
20200216182208 6 248 14.5 14.5 0.00 0.00 0.00 94 995.7
20200216181706 6 180 6.4 14.5 0.00 0.00 0.00 94 995.7
20200216181207 6 180 6.4 14.5 0.00 0.00 0.00 94 995.7
20200216180707 6 202 14.5 16.1 0.00 0.00 0.00 94 995.7
20200216180208 6 202 12.9 16.1 0.00 0.00 0.00 95 995.7
20200216175707 6 202 16.1 16.1 0.00 0.00 0.00 95 995.7
20200216175208 6 202 9.7 12.9 0.00 0.00 0.00 95 994.7
20200216174708 6 202 9.7 12.9 0.00 0.00 0.00 95 994.7
20200216174210 6 225 12.9 12.9 0.00 0.00 0.00 95 994.7
20200216173707 6 225 12.9 8.0 0.00 0.00 0.00 95 994.7
20200216173209 6 158 8.0 9.7 0.00 0.00 0.00 95 994.7
20200216172708 6 225 6.4 11.3 0.00 0.00 0.00 96 994.7
20200216172210 6 225 9.7 11.3 0.00 0.00 0.00 96 994.7
20200216171708 6 158 6.4 11.3 0.00 0.00 0.00 96 994.7
20200216171207 6 202 11.3 17.7 0.00 0.00 0.00 96 994.7
20200216170707 6 180 8.0 17.7 0.00 0.00 0.00 96 994.7
20200216170208 6 202 6.4 17.7 0.00 0.00 0.00 97 994.7
20200216165714 6 180 9.7 12.9 0.00 0.00 0.00 97 994.7
20200216165207 7 225 8.0 12.9 0.00 0.00 0.00 96 993.7
20200216164708 7 180 4.8 12.9 0.00 0.00 0.00 97 993.7
20200216164208 7 180 12.9 12.9 0.00 0.00 0.00 97 993.7
20200216163707 7 180 9.7 12.9 0.00 0.00 0.00 97 993.7
20200216163207 7 180 9.7 12.9 0.00 0.00 0.00 97 993.7
20200216162707 7 202 12.9 12.9 0.00 0.00 0.00 98 993.7
20200216162211 7 112 6.4 9.7 0.00 0.00 0.00 98 993.7
20200216161733 7 180 8.0 9.7 0.00 0.00 0.00 98 993.7
20200216161208 7 158 6.4 9.7 0.00 0.00 0.00 98 993.7
20200216160707 7 180 9.7 6.4 0.00 0.00 0.00 98 993.7
20200216160208 7 225 6.4 9.7 0.00 0.00 0.00 98 993.7
20200216155707 7 225 6.4 11.3 0.00 0.00 0.00 98 993.7
20200216155207 7 248 6.4 11.3 0.00 0.00 0.00 98 992.7
20200216154708 7 202 9.7 11.3 0.00 0.00 0.00 98 992.7
20200216154209 7 225 3.2 6.4 0.00 0.00 0.00 98 992.7
20200216153713 7 202 6.4 8.0 0.00 0.00 0.00 98 992.7
20200216153207 7 180 1.6 12.9 0.00 0.00 0.00 98 992.7
20200216152707 7 180 8.0 12.9 0.00 0.00 0.00 98 992.7
20200216152208 7 225 6.4 12.9 0.00 0.00 0.00 98 992.7
20200216151708 7 225 3.2 11.3 0.00 0.00 0.00 98 992.7
20200216151214 7 225 3.2 17.7 0.00 0.00 0.00 98 992.7
20200216150707 7 338 3.2 17.7 0.00 0.00 0.00 98 992.7
20200216150209 7 225 11.3 17.7 0.00 0.00 0.00 98 992.7
20200216145708 7 225 17.7 17.7 0.00 0.00 0.00 98 992.7
20200216145207 7 225 17.7 12.9 0.00 0.00 0.00 98 991.7
20200216144716 7 270 8.0 12.9 0.00 0.00 0.00 98 991.7
20200216144210 7 180 12.9 11.3 0.00 0.00 0.00 98 991.7
20200216143717 7 202 4.8 11.3 0.00 0.00 0.00 98 991.7
20200216143207 7 202 4.8 11.3 0.00 0.00 0.00 98 991.7
20200216142707 7 180 6.4 11.3 0.00 0.00 0.00 98 991.7
20200216142208 7 202 4.8 8.0 0.00 0.00 0.00 98 991.7
20200216141709 7 180 4.8 9.7 0.00 0.00 0.00 98 991.7
20200216141207 7 158 3.2 9.7 0.00 0.00 0.00 98 991.7
20200216140707 7 180 9.7 11.3 0.00 0.00 0.00 98 991.7
20200216140213 7 225 9.7 11.3 0.00 0.00 0.00 98 991.7
20200216135714 7 180 4.8 11.3 0.00 0.00 0.00 98 991.7
20200216135207 7 180 4.8 11.3 0.00 0.00 0.00 98 991.7
20200216134721 7 202 4.8 3.2 0.00 0.00 0.00 98 991.7
20200216134206 7 180 3.2 3.2 0.00 0.00 0.00 98 991.7
20200216133726 7 158 3.2 16.1 0.00 0.00 0.00 98 991.7
20200216133211 7 158 3.2 16.1 0.00 0.00 0.00 98 991.7
20200216132708 7 180 16.1 16.1 0.00 0.00 0.00 98 991.7
20200216132216 7 180 16.1 9.7 0.00 0.00 0.00 98 991.7
20200216131708 7 158 4.8 9.7 0.00 0.00 0.00 98 991.7
20200216131209 7 158 4.8 9.7 0.00 0.00 0.00 98 991.7
20200216130709 7 202 9.7 9.7 0.00 0.00 0.00 98 991.7
20200216130208 7 180 4.8 6.4 0.00 0.00 0.00 98 991.7
20200216125708 7 180 4.8 6.4 0.00 0.00 0.00 98 991.7
20200216125207 7 225 4.8 6.4 0.00 0.00 0.00 98 991.7
20200216124752 7 45 6.4 11.3 0.00 0.00 0.00 98 991.7
20200216124217 7 45 6.4 11.3 0.00 0.00 0.00 98 991.7
20200216123736 7 202 11.3 11.3 0.00 0.00 0.00 98 991.7
20200216123210 7 202 11.3 4.8 0.00 0.00 0.00 98 991.7
20200216122712 7 135 4.8 4.8 0.00 0.00 0.00 98 991.7
20200216122210 7 315 4.8 4.8 0.00 0.00 0.00 98 991.7
20200216121730 7 338 3.2 4.8 0.00 0.00 0.00 98 991.7
20200216121208 7 270 4.8 0.0 0.00 0.00 0.00 98 991.7
20200216120706 7 202 4.8 4.8 0.00 0.00 0.00 98 990.7
20200216120208 7 202 4.8 4.8 0.00 0.00 0.00 98 990.7
20200216115707 7 202 4.8 4.8 0.00 0.00 0.00 98 990.7
20200216115207 7 202 4.8 8.0 0.00 0.00 0.00 98 990.7
20200216114717 8 202 4.8 8.0 0.00 0.00 0.00 98 990.7
20200216114208 8 202 4.8 8.0 0.00 0.00 0.00 98 990.7
20200216113721 8 158 1.6 12.9 0.00 0.00 0.00 98 990.7
20200216113207 8 158 1.6 12.9 0.00 0.00 0.00 98 990.7
20200216112709 8 270 0.0 12.9 0.00 0.00 0.00 98 990.7
20200216112219 8 292 12.9 6.4 0.00 0.00 0.00 98 990.7
20200216111708 8 180 6.4 6.4 0.00 0.00 0.00 98 990.7
20200216111209 8 202 3.2 0.0 0.00 0.00 0.00 98 990.7
20200216110707 8 202 3.2 0.0 0.00 0.00 0.00 98 990.7
20200216110208 8 202 3.2 0.0 0.00 0.00 0.00 98 990.7
20200216105715 8 202 3.2 0.0 0.00 0.00 0.00 98 990.7
20200216105208 8 202 3.2 0.0 0.00 0.00 0.00 98 990.7
20200216104708 8 202 3.2 0.0 0.00 0.00 0.00 98 990.7
20200216104208 8 202 3.2 3.2 0.00 0.00 0.00 98 990.7
20200216103707 8 202 3.2 3.2 0.00 0.00 0.00 98 990.7
20200216103208 9 202 3.2 9.7 0.00 0.00 0.00 98 990.7
20200216102716 9 202 3.2 9.7 0.00 0.00 0.00 98 990.7
20200216102207 9 202 3.2 9.7 0.00 0.00 0.00 98 990.7
20200216101727 9 158 9.7 9.7 0.00 0.00 0.00 98 990.7
20200216101208 9 248 9.7 9.7 0.00 0.00 0.00 98 990.7
20200216100707 9 248 9.7 9.7 0.00 0.00 0.00 98 990.7
20200216100208 9 248 9.7 9.7 0.00 0.00 0.00 98 990.7
20200216095712 9 248 9.7 9.7 0.00 0.00 0.00 98 990.7
20200216095207 9 202 8.0 9.7 0.00 0.00 0.00 98 990.7
20200216094714 9 202 9.7 9.7 0.00 0.00 0.00 98 990.7
20200216094208 9 202 9.7 9.7 0.00 0.00 0.00 98 990.7
20200216093712 9 180 8.0 9.7 0.00 0.00 0.00 98 990.7
20200216093208 9 180 9.7 16.1 0.00 0.00 0.00 98 990.7
20200216092707 9 180 9.7 16.1 0.00 0.00 0.00 98 990.7
20200216092214 9 180 9.7 16.1 0.00 0.00 0.00 98 990.7
20200216091709 9 180 9.7 16.1 0.00 0.00 0.00 98 990.7